Flag for Germany Weather past 2 weeks in Falkensee, Brandenburg, Germany

Now
70 °F

Passing clouds.


Feels Like: 70 °F
Forecast: 53 / 75 °F
Wind: 12 mph from Southeast

Location: Berlin-Tegel

Current Time: Sep 18, 2014 at 12:25:39 PM

Latest Report: Sep 18, 2014 at 11:50 AM


Visibility: N/A

Pressure: 29.98 "Hg

Humidity: 53%

Dew point: 52 °F

Location of FalkenseeLocation

Historic Weather in Falkensee — Graph

°F

Falkensee temperature yesterday

Maximum temperature yesterday: 75 °F (at 3:20 PM)
Minimum temperature yesterday: 57 °F (at 5:50 AM)
Average temperature yesterday: 66 °F

Past Weeks' High & Low Weather Summary

 TemperatureHumidityPressure
High81 °F (Sep 6, 2:50 PM)94% (Sep 8, 3:20 AM)30.30 "Hg (Sep 8, 3:20 AM)
Low52 °F (Sep 9, 3:50 AM)34% (Sep 6, 3:20 PM)29.86 "Hg (Sep 6, 4:20 PM)
Average65 °F71%30.05 "Hg
* Reported Sep 3 11:20 AM — Sep 18 11:20 AM, Falkensee, Weather by CustomWeather, © 2014

Note: Actual official high and low records may vary slightly from our data, if they occured in-between our weather recording intervals... More about our weather records

Advertising

Falkensee weather history for previous 24 hours

 ConditionsComfort  
Time TempWeatherWind HumidityBarometerVisibility
11:20 AM
Sep 18
70 °FSunny.12 mph53%29.98 "Hg10 mi
10:50 AM68 °FSunny.10 mph56%30.01 "Hg10 mi
10:20 AM66 °FSunny.8 mph60%30.01 "Hg10 mi
9:50 AM64 °FSunny.8 mph64%30.01 "Hg10 mi
9:20 AM63 °FSunny.8 mph68%30.01 "Hg10 mi
8:50 AM61 °FSunny.8 mph72%30.01 "Hg10 mi
8:20 AM59 °FSunny.8 mph77%30.01 "Hg10 mi
7:50 AM59 °FSunny.9 mph72%30.01 "Hg10 mi
7:20 AM57 °FClear.8 mph77%30.01 "Hg10 mi
6:50 AM57 °FClear.7 mph77%29.98 "Hg10 mi
6:20 AM57 °FClear.10 mph77%29.98 "Hg10 mi
5:50 AM57 °FClear.10 mph77%29.98 "Hg10 mi
5:20 AM57 °FClear.9 mph77%29.98 "Hg10 mi
4:50 AM59 °FClear.9 mph72%30.01 "Hg10 mi
4:20 AM59 °FClear.9 mph72%30.01 "Hg10 mi
3:50 AM59 °FClear.8 mph72%30.01 "Hg10 mi
3:20 AM59 °FClear.8 mph72%30.01 "Hg10 mi
2:50 AM61 °FClear.8 mph68%30.01 "Hg10 mi
2:20 AM61 °FClear.7 mph68%30.01 "Hg10 mi
1:50 AM61 °FClear.9 mph68%30.01 "Hg10 mi
1:20 AM63 °FClear.8 mph64%30.01 "Hg10 mi
12:50 AM63 °FClear.10 mph64%30.01 "Hg10 mi
12:20 AM64 °FClear.12 mph60%30.01 "Hg10 mi
11:50 PM
Sep 17
64 °FClear.10 mph60%30.01 "Hg10 mi
11:20 PM66 °FClear.10 mph60%30.01 "Hg10 mi
10:50 PM66 °FClear.10 mph60%30.01 "Hg10 mi
10:20 PM66 °FClear.12 mph60%30.01 "Hg10 mi
9:50 PM66 °FClear.13 mph64%30.01 "Hg10 mi
9:20 PM68 °FClear.10 mph64%30.01 "Hg10 mi
8:50 PM68 °FClear.9 mph64%30.01 "Hg10 mi
8:20 PM68 °FClear.9 mph64%30.01 "Hg10 mi
7:50 PM70 °FSunny.10 mph60%30.01 "Hg10 mi
7:20 PM72 °FSunny.10 mph57%30.01 "Hg10 mi
6:50 PM72 °FSunny.13 mph57%30.01 "Hg10 mi
6:20 PM73 °FPassing clouds.13 mph50%30.01 "HgN/A
5:50 PM75 °FPassing clouds.14 mph47%30.01 "HgN/A
5:20 PM75 °FPassing clouds.14 mph47%30.01 "HgN/A
4:50 PM75 °FPassing clouds.13 mph47%30.01 "HgN/A
4:20 PM75 °FPassing clouds.12 mph47%30.01 "HgN/A
3:50 PM75 °FPassing clouds.14 mph47%30.01 "HgN/A
3:20 PM75 °FPassing clouds.13 mph47%30.01 "HgN/A
2:50 PM73 °FPassing clouds.12 mph50%30.04 "HgN/A
2:20 PM73 °FSunny.12 mph50%30.04 "Hg10 mi
1:50 PM73 °FSunny.12 mph50%30.04 "Hg10 mi
1:20 PM72 °FSunny.14 mph53%30.04 "Hg10 mi
12:50 PM72 °FSunny.10 mph57%30.04 "Hg10 mi
12:20 PM70 °FSunny.10 mph60%30.07 "Hg10 mi
Weather by CustomWeather, © 2014

See weather overviewHow to use our weather pages